Lobo

Go HERE for most recent data if this page is not up to date.

Jump to table bottom
Date/Time Temp deg F RH % 24 Hr Snow (in) Snow Depth (in) H2O (in)
07/24 09:00 66.9 34 "NAN" -0.1 0.00
07/24 08:00 64.5 33 "NAN" 0.0 0.00
07/24 07:00 63.1 32 "NAN" -0.3 0.00
07/24 06:00 63.4 32 "NAN" -0.1 0.00
07/24 05:00 64.0 32 "NAN" -0.3 0.00
07/24 04:00 65.2 30 "NAN" 0.4 0.00
07/24 03:00 64.5 25 "NAN" 0.0 0.00
07/24 02:00 64.8 24 "NAN" -0.0 0.00
07/24 01:00 65.0 24 "NAN" 0.2 0.00
07/24 00:00 66.8 23 "NAN" -0.4 0.00
07/23 23:00 67.2 21 "NAN" -0.4 0.00
07/23 22:00 67.3 21 "NAN" -0.2 0.00
07/23 21:00 69.2 24 "NAN" -0.3 0.00
07/23 20:00 70.8 19 "NAN" 0.2 0.00
07/23 19:00 72.5 20 "NAN" 0.2 0.00
07/23 18:00 73.7 17 "NAN" 0.4 0.00
07/23 17:00 74.7 18 "NAN" -0.3 0.00
07/23 16:00 76.1 16 "NAN" -0.0 0.00
07/23 15:00 73.5 12 "NAN" 0.2 0.00
07/23 14:00 71.3 28 "NAN" -0.4 0.00
07/23 13:00 70.9 30 "NAN" -0.0 0.00
07/23 12:00 70.6 30 "NAN" -0.3 0.00
07/23 11:00 67.9 28 "NAN" -0.2 0.00
07/23 10:00 64.6 36 "NAN" -0.5 0.00
07/23 09:00 61.8 41 "NAN" -0.5 0.00
07/23 08:00 59.6 39 "NAN" -0.4 0.00
07/23 07:00 58.4 42 "NAN" 0.0 0.00
07/23 06:00 58.6 38 "NAN" 0.2 0.00
07/23 05:00 59.3 36 "NAN" 0.5 0.00
07/23 04:00 57.9 37 "NAN" 0.3 0.00
07/23 03:00 57.8 38 "NAN" 0.3 0.00
07/23 02:00 58.5 38 "NAN" 0.9 0.00
07/23 01:00 59.0 34 "NAN" 1.1 0.00
07/23 00:00 59.5 35 "NAN" 0.6 0.00
.